NETSAT-3

Last updated on Fri Sep 19 2025 00:03:49 GMT+0000 (Coordinated Universal Time)

1 46505U 20068V 25260.92488629 .00012907 00000+0 42819-3 0 9994 2 46505 97.8550 243.3449 0005377 199.9467 160.1564 15.31382929273853
UTC large
Height (km)
Speed (km/s)
/
Latitude / Longitude
Inclination (degrees)
Orbital Period (minutes)
Azimuth
Elevation
Range (km)
Doppler Factor

Next 0 passes for location: London (51.5072 / 0.1276)

Sorry there are no passes over London.